Jefferson, NC

10:00 AM EST on November 17, 2019 (GMT -0500)
Ashe County

Weather History for KGEV - May, 2019

Change the Weather History Date:

Sunday, May 12, 2019

  Actual Average Record
Temperature  
Mean Temperature 63 °F -  
Max Temperature 67 °F 70 °F 84 °F (2005)
Min Temperature 58 °F 46 °F 31 °F (1977)
Degree Days  
Heating Degree Days 2    
Growing Degree Days 13 (Base 50)    
Moisture  
Dew Point 57 °F    
Average Humidity 86    
Maximum Humidity 100    
Minimum Humidity 65    
Precipitation  
Precipitation 0.08 in - - ()
Sea Level Pressure  
Sea Level Pressure 29.81 in    
Wind  
Wind Speed 6 mph (WSW)    
Max Wind Speed 20 mph    
Max Gust Speed 29 mph    
Visibility 9 miles    
Events Rain    
Averages and records for this station are not official NWS values.
T = Trace of Precipitation, MM = Missing Value Source: NWS Daily Summary

Daily Weather History Graph

Daily Weather History Graph

Search for Another Location

Airport or City:

Astronomy

May. 12, 2019 Rise Set
Actual Time 6:21 AM EDT 8:22 PM EDT
Civil Twilight 5:53 AM EDT 8:51 PM EDT
Nautical Twilight 5:18 AM EDT 9:26 PM EDT
Astronomical Twilight 4:41 AM EDT 10:03 PM EDT
Moon 1:38 PM EDT (5/12) 2:45 AM EDT (5/12)
Length of Visible Light 14h 58m
Length of Day
14h 01m
First Quarter, 57% of the Moon is Illuminated
May 12
First Quarter
May 18
Full
May 26
Last Quarter
Jun 3
New
Jun 10
First Quarter

Hourly Weather History & Observations

Time (EDT) Temp. Dew Point Humidity Pressure Visibility Wind Dir Wind Speed Gust Speed Precip Events Conditions
12:05 AM 60.3 °F 60.3 °F 100% 29.92 in 1.2 mi SSE 4.6 mph - N/A Rain Light Rain
12:25 AM 60.3 °F 60.3 °F 100% 29.91 in 10.0 mi SSE 3.5 mph - N/A   Overcast
12:45 AM 60.3 °F 59.9 °F 99% 29.90 in 10.0 mi South 6.9 mph - N/A   Drizzle
1:05 AM 60.1 °F 59.9 °F 99% 29.90 in 5.0 mi Calm Calm - 0.01 in Rain Light Rain
1:25 AM 59.9 °F 59.9 °F 100% 29.89 in 7.0 mi SSE 3.5 mph - 0.01 in Rain Light Rain
1:45 AM 59.9 °F 59.9 °F 100% 29.88 in 3.0 mi SE 3.5 mph - 0.01 in   Overcast
2:05 AM 59.9 °F 59.9 °F 100% 29.87 in 10.0 mi Calm Calm - N/A   Overcast
2:25 AM 59.9 °F 59.5 °F 99% 29.87 in 10.0 mi Calm Calm - N/A   Overcast
3:05 AM 59.5 °F 59.5 °F 100% 29.85 in 7.0 mi Calm Calm - N/A   Drizzle
3:25 AM 59.5 °F 59.5 °F 100% 29.84 in 5.0 mi South 3.5 mph - N/A Rain Light Rain
3:45 AM 59.4 °F 59.4 °F 100% 29.83 in 2.5 mi South 3.5 mph - N/A   Overcast
4:05 AM 59.5 °F 59.5 °F 100% 29.82 in 4.0 mi SSE 3.5 mph - N/A   Overcast
4:25 AM 59.5 °F 59.5 °F 100% 29.82 in 10.0 mi South 5.8 mph - N/A   Overcast
4:45 AM 59.5 °F 59.4 °F 99% 29.82 in 7.0 mi Calm Calm - N/A   Overcast
5:05 AM 59.4 °F 59.2 °F 99% 29.80 in 10.0 mi Calm Calm - N/A   Overcast
5:25 AM 59.4 °F 59.2 °F 99% 29.80 in 10.0 mi South 4.6 mph - N/A   Overcast
5:45 AM 59.7 °F 59.2 °F 98% 29.80 in 10.0 mi South 6.9 mph - N/A   Overcast
6:05 AM 59.5 °F 59.2 °F 99% 29.81 in 10.0 mi South 6.9 mph - N/A   Overcast
6:25 AM 59.5 °F 59.2 °F 99% 29.81 in 10.0 mi SSE 6.9 mph - N/A Rain Rain
6:45 AM 59.9 °F 59.0 °F 97% 29.81 in 7.0 mi Calm Calm - N/A Rain Light Rain
7:05 AM 59.9 °F 58.6 °F 96% 29.79 in 10.0 mi SSW 3.5 mph - N/A   Light Drizzle
7:25 AM 61.2 °F 57.9 °F 89% 29.80 in 10.0 mi WSW 3.5 mph - 0.01 in   Mostly Cloudy
7:45 AM 61.5 °F 57.6 °F 87% 29.80 in 10.0 mi Calm Calm - 0.01 in   Overcast
8:05 AM 61.0 °F 57.9 °F 90% 29.80 in 10.0 mi Calm Calm - N/A   Mostly Cloudy
8:25 AM 61.9 °F 57.2 °F 85% 29.81 in 10.0 mi WNW 5.8 mph - N/A   Drizzle
8:45 AM 60.6 °F 57.4 °F 89% 29.81 in 7.0 mi West 6.9 mph - N/A   Drizzle
9:05 AM 59.9 °F 57.6 °F 92% 29.82 in 7.0 mi WSW 4.6 mph - 0.01 in Rain Light Rain
9:25 AM 60.6 °F 57.6 °F 90% 29.82 in 10.0 mi SW 8.1 mph - 0.01 in Rain Light Rain
9:45 AM 60.1 °F 57.4 °F 91% 29.82 in 4.0 mi WNW 3.5 mph - 0.04 in Rain Heavy Rain
10:05 AM 59.5 °F 57.2 °F 92% 29.82 in 4.0 mi West 8.1 mph - 0.01 in Rain Light Rain
10:25 AM 61.0 °F 57.7 °F 89% 29.82 in 10.0 mi West 9.2 mph 16.1 mph 0.01 in   Overcast
10:45 AM 62.4 °F 57.7 °F 85% 29.82 in 10.0 mi West 9.2 mph - 0.01 in   Overcast
11:05 AM 63.7 °F 57.6 °F 80% 29.82 in 10.0 mi WSW 8.1 mph - N/A   Overcast
11:25 AM 63.9 °F 57.0 °F 78% 29.82 in 10.0 mi West 8.1 mph - N/A   Overcast
11:45 AM 65.3 °F 55.9 °F 72% 29.82 in 10.0 mi West 16.1 mph - N/A   Mostly Cloudy
12:05 PM 65.5 °F 55.2 °F 69% 29.82 in 10.0 mi West 10.4 mph - N/A   Overcast
12:25 PM 66.2 °F 54.5 °F 66% 29.82 in 10.0 mi West 9.2 mph 17.3 mph N/A   Mostly Cloudy
12:45 PM 66.6 °F 54.3 °F 65% 29.81 in 10.0 mi West 13.8 mph 18.4 mph N/A   Mostly Cloudy
1:05 PM 65.8 °F 55.0 °F 68% 29.82 in 10.0 mi WSW 8.1 mph - N/A   Mostly Cloudy
1:25 PM 65.7 °F 55.0 °F 69% 29.82 in 10.0 mi WSW 5.8 mph 16.1 mph N/A   Overcast
1:45 PM 66.6 °F 54.9 °F 66% 29.82 in 10.0 mi West 6.9 mph 17.3 mph N/A   Overcast
2:05 PM 65.8 °F 54.7 °F 67% 29.81 in 10.0 mi SSW 4.6 mph - N/A   Overcast
2:25 PM 65.8 °F 56.1 °F 71% 29.80 in 10.0 mi WSW 6.9 mph - N/A   Overcast
2:45 PM 67.1 °F 55.4 °F 66% 29.79 in 10.0 mi West 9.2 mph - N/A   Mostly Cloudy
3:05 PM 66.6 °F 56.3 °F 69% 29.79 in 10.0 mi West 9.2 mph - N/A   Overcast
3:25 PM 63.5 °F 58.3 °F 83% 29.80 in 10.0 mi West 11.5 mph - 0.01 in Rain Light Rain
3:45 PM 61.9 °F 58.1 °F 87% 29.79 in 7.0 mi West 8.1 mph - 0.01 in   Light Drizzle
4:05 PM 62.8 °F 58.1 °F 85% 29.78 in 10.0 mi West 6.9 mph - N/A   Overcast
4:25 PM 63.5 °F 57.4 °F 80% 29.77 in 10.0 mi West 10.4 mph - N/A   Mostly Cloudy
4:45 PM 62.8 °F 56.7 °F 80% 29.77 in 10.0 mi West 13.8 mph 19.6 mph N/A   Mostly Cloudy
5:05 PM 62.4 °F 56.3 °F 80% 29.76 in 10.0 mi West 19.6 mph 28.8 mph N/A   Overcast
5:25 PM 62.1 °F 55.0 °F 78% 29.76 in 10.0 mi West 15.0 mph 26.5 mph N/A   Overcast
5:45 PM 62.1 °F 55.0 °F 78% 29.76 in 10.0 mi West 16.1 mph 28.8 mph N/A   Overcast
6:05 PM 61.9 °F 55.0 °F 78% 29.76 in 10.0 mi West 17.3 mph 25.3 mph N/A   Mostly Cloudy
6:25 PM 62.8 °F 55.0 °F 76% 29.76 in 10.0 mi West 12.7 mph 18.4 mph N/A   Mostly Cloudy
6:45 PM 62.1 °F 54.9 °F 77% 29.76 in 10.0 mi WNW 13.8 mph 20.7 mph N/A   Mostly Cloudy
7:05 PM 62.6 °F 55.2 °F 77% 29.75 in 10.0 mi West 12.7 mph 25.3 mph N/A   Scattered Clouds
7:25 PM 61.9 °F 55.0 °F 78% 29.76 in 10.0 mi West 9.2 mph 24.2 mph N/A   Scattered Clouds
7:45 PM 61.9 °F 55.4 °F 79% 29.76 in 10.0 mi West 11.5 mph - N/A   Mostly Cloudy
8:05 PM 61.9 °F 55.4 °F 79% 29.78 in 10.0 mi WNW 11.5 mph 19.6 mph N/A   Overcast
8:25 PM 61.3 °F 55.4 °F 81% 29.79 in 10.0 mi West 8.1 mph - N/A   Overcast
8:45 PM 61.2 °F 55.4 °F 81% 29.80 in 10.0 mi WSW 4.6 mph - N/A   Overcast
9:05 PM 60.8 °F 55.4 °F 82% 29.79 in 10.0 mi West 3.5 mph - N/A   Overcast
9:25 PM 60.8 °F 55.4 °F 82% 29.79 in 10.0 mi West 6.9 mph - N/A   Overcast
9:45 PM 60.6 °F 55.2 °F 82% 29.78 in 10.0 mi West 10.4 mph - N/A   Light Drizzle
10:05 PM 59.9 °F 55.4 °F 85% 29.78 in 10.0 mi West 4.6 mph - N/A   Overcast
10:25 PM 59.9 °F 55.4 °F 85% 29.79 in 10.0 mi West 4.6 mph - N/A   Overcast
10:45 PM 59.5 °F 55.0 °F 85% 29.80 in 10.0 mi NW 3.5 mph - N/A   Overcast
11:05 PM 59.9 °F 54.9 °F 83% 29.80 in 10.0 mi West 4.6 mph - N/A   Overcast
11:45 PM 58.6 °F 55.4 °F 89% 29.80 in 10.0 mi Calm Calm - N/A   Overcast